{"data":{"norad_id":69967,"intl_designator":"2026-157AA","name":"STARLINK-37875","alt_names":[],"object_type":"PAYLOAD","status":"ACTIVE","operator":null,"country":"US","launch_date":"2026-07-09","launch_site_code":"AFETR","launch_vehicle":null,"mission":null,"orbit_class":"UNKNOWN","rcs_meters":null,"size_class":null,"mass_kg":null,"dimensions":null,"purposes":["comms"],"wikipedia_slug":null,"has_3d_model":false,"image_url":null,"decayed_at":null,"tle_current":{"epoch":"2026-09-19T18:40:10.178976Z","epoch_age_seconds":80211,"freshness":"FRESH","line1":"1 69967U 26157AA  26262.77789559  .00017605  00000+0  53077-3 0  9996","line2":"2 69967  53.1582 336.9732 0001102 104.4089 255.7036 15.34411229 11266","mean_motion":15.34411229,"eccentricity":0.0001102,"inclination_deg":53.1582,"raan_deg":336.9732,"arg_perigee_deg":104.4089,"mean_anomaly_deg":255.7036,"bstar":0.00053077,"rev_number":1126,"period_min":93.847071292516,"perigee_km":461.91600853966,"apogee_km":463.42372237281,"semimajor_km":6840.8068654562,"source":"CELESTRAK","updated_at":"2026-09-20T09:00:44.303879Z"}}}